"Pseudo-MPEC" for P115zsV

Created 2020 Sep 24 23:07:16 UT using Find_Orb

Click here for an explanation of pseudo-MPECs

 
 Astrometry: 
     P115zsV  C2020 09 12k6gAstrometryO?Y]9TFjredacted;J_?vRbHYOvo4ZBl+HrujG:F51
     P115zsV  C2020 09 12I=xbLx,v]Ko3WW[j`clickX`Nl\ArACj=3k1\c/x5a+exVZherefF51
     P115zsV  C2020 09 12gkGX+YforrY%TTxvxBmeh$Qh@O__Nos:]explanationd;ooOg(TF51

Station data:
(F51) Pan-STARRS 1, Haleakala  (N20.707235 W156.255910)  US/Hawaii.
   Observers N. Primak, A. Schultz, S. Watters, J. Thiel, T. Goggia. Measurer
   PS1 Science Consortium. 1.8-m Ritchey-Chrétien + CCD.

Orbital elements:  P115zsV
   Perihelion 2020 Oct 18.950461 +/- 55 TT = 22:48:39 (JD 2459141.450461)
Epoch 2020 Sep 12.0 TT = JDT 2459104.5   Earth MOID: 0.5449   AutoNEOCP
M 351.57955183 +/- 15               (J2000 ecliptic)
n   0.22788479 +/- 0.223            Peri.  261.63744 +/- 80
a   2.65455964 +/- 1.73             Node   110.98474 +/- 43
e   0.4292073 +/- 0.243             Incl.    8.44956 +/- 4.9
P   4.33                   H 21.8   G  0.15   U 11.7  SR
q 1.51520301 +/- 0.567    Q 3.79391627 +/- 137
From 3 observations 2020 Sept. 12 (29.7 min); mean residual 0".08
Residuals in arcseconds: 
200912 F51  .06-  .05-    200912 F51  .12+  .10+    200912 F51  .06-  .05-    

Ephemerides (geocentric):
Date (UTC) HH   RA              Dec         delta   r     elong  mag " sig PA
---- -- -- --  -------------   -----------  ------ ------ -----  --- ---- ---
2020 09 24 23  23 53 00.070   -24 18 00.76  .56326 1.5310 154.6 22.3  36d 177
2020 09 25 00  23 52 59.842   -24 18 12.35  .56329 1.5309 154.6 22.3  36d 177
2020 09 25 01  23 52 59.616   -24 18 23.89  .56331 1.5309 154.6 22.3  36d 177
2020 09 25 02  23 52 59.390   -24 18 35.37  .56334 1.5308 154.6 22.3  36d 177
2020 09 25 03  23 52 59.164   -24 18 46.78  .56337 1.5308 154.5 22.3  36d 177
2020 09 25 04  23 52 58.940   -24 18 58.14  .56339 1.5307 154.5 22.3  36d 177
2020 09 25 05  23 52 58.716   -24 19 09.45  .56342 1.5307 154.5 22.3  36d 177
2020 09 25 06  23 52 58.493   -24 19 20.69  .56345 1.5306 154.5 22.3  36d 177
2020 09 25 07  23 52 58.271   -24 19 31.87  .56348 1.5306 154.4 22.3  36d 177
2020 09 25 08  23 52 58.049   -24 19 43.00  .56350 1.5305 154.4 22.3  36d 177
2020 09 25 09  23 52 57.828   -24 19 54.06  .56353 1.5304 154.4 22.3  36d 177
2020 09 25 10  23 52 57.608   -24 20 05.07  .56356 1.5304 154.4 22.3  36d 177
2020 09 25 11  23 52 57.389   -24 20 16.02  .56359 1.5303 154.3 22.3  36d 177
2020 09 25 12  23 52 57.170   -24 20 26.91  .56362 1.5303 154.3 22.3  36d 177
2020 09 25 13  23 52 56.953   -24 20 37.74  .56365 1.5302 154.3 22.3  36d 177
2020 09 25 14  23 52 56.736   -24 20 48.52  .56368 1.5302 154.3 22.3  36d 177
2020 09 25 15  23 52 56.520   -24 20 59.23  .56371 1.5301 154.2 22.3  36d 177
2020 09 25 16  23 52 56.304   -24 21 09.89  .56374 1.5301 154.2 22.3  36d 177
2020 09 25 17  23 52 56.090   -24 21 20.48  .56377 1.5300 154.2 22.3  36d 177
2020 09 25 18  23 52 55.876   -24 21 31.02  .56380 1.5300 154.2 22.3  36d 177
2020 09 25 19  23 52 55.664   -24 21 41.50  .56383 1.5299 154.1 22.3  36d 177
2020 09 25 20  23 52 55.452   -24 21 51.92  .56386 1.5299 154.1 22.3  36d 177
2020 09 25 21  23 52 55.240   -24 22 02.28  .56390 1.5298 154.1 22.3  36d 177
2020 09 25 22  23 52 55.030   -24 22 12.58  .56393 1.5298 154.1 22.3  36d 177
2020 09 25 23  23 52 54.821   -24 22 22.82  .56396 1.5297 154.0 22.3  36d 177
2020 09 26 00  23 52 54.612   -24 22 33.00  .56399 1.5297 154.0 22.3  36d 177
2020 09 26 01  23 52 54.404   -24 22 43.13  .56402 1.5296 154.0 22.3  36d 177
2020 09 26 02  23 52 54.197   -24 22 53.19  .56406 1.5295 154.0 22.3  36d 177
2020 09 26 03  23 52 53.991   -24 23 03.19  .56409 1.5295 153.9 22.3  36d 177
2020 09 26 04  23 52 53.786   -24 23 13.14  .56412 1.5294 153.9 22.3  36d 177
2020 09 26 05  23 52 53.582   -24 23 23.03  .56416 1.5294 153.9 22.3  36d 177
2020 09 26 06  23 52 53.379   -24 23 32.85  .56419 1.5293 153.9 22.3  36d 177
2020 09 26 07  23 52 53.176   -24 23 42.62  .56422 1.5293 153.8 22.3  36d 177
2020 09 26 08  23 52 52.975   -24 23 52.33  .56426 1.5292 153.8 22.3  36d 177
2020 09 26 09  23 52 52.774   -24 24 01.98  .56429 1.5292 153.8 22.3  36d 177
2020 09 26 10  23 52 52.574   -24 24 11.57  .56433 1.5291 153.8 22.3  36d 177
2020 09 26 11  23 52 52.375   -24 24 21.10  .56436 1.5291 153.7 22.3  36d 177
2020 09 26 12  23 52 52.178   -24 24 30.57  .56440 1.5290 153.7 22.3  36d 177
2020 09 26 13  23 52 51.981   -24 24 39.98  .56443 1.5290 153.7 22.3  36d 177
2020 09 26 14  23 52 51.785   -24 24 49.33  .56447 1.5289 153.7 22.3  36d 177
2020 09 26 15  23 52 51.590   -24 24 58.62  .56451 1.5289 153.6 22.3  36d 177
2020 09 26 16  23 52 51.396   -24 25 07.85  .56454 1.5288 153.6 22.3  36d 177
2020 09 26 17  23 52 51.202   -24 25 17.02  .56458 1.5288 153.6 22.3  36d 177
2020 09 26 18  23 52 51.010   -24 25 26.13  .56461 1.5287 153.6 22.3  36d 177
2020 09 26 19  23 52 50.819   -24 25 35.19  .56465 1.5287 153.5 22.3  36d 177
2020 09 26 20  23 52 50.629   -24 25 44.18  .56469 1.5286 153.5 22.3  36d 177
2020 09 26 21  23 52 50.440   -24 25 53.11  .56473 1.5286 153.5 22.3  36d 177
2020 09 26 22  23 52 50.252   -24 26 01.99  .56476 1.5285 153.4 22.3  36d 177